TimePST,TemperatureF,Dew PointF,Humidity,Sea Level PressureIn,VisibilityMPH,Wind Direction,Wind SpeedMPH,Gust SpeedMPH,PrecipitationIn,Events,Conditions,WindDirDegrees,DateUTC
12:53 AM,44.1,44.1,100,30.18,9.0,ESE,19.6,-,0.05,Rain,Rain,120,2012-11-12 08:53:00
1:53 AM,44.1,44.1,100,30.17,10.0,SE,12.7,-,0.06,Rain,Light Rain,130,2012-11-12 09:53:00
2:53 AM,44.1,44.1,100,30.16,6.0,SE,12.7,-,0.11,Rain,Rain,130,2012-11-12 10:53:00
3:53 AM,45.0,45.0,100,30.17,7.0,ESE,12.7,-,0.09,Rain,Rain,110,2012-11-12 11:53:00
4:53 AM,45.0,45.0,100,30.17,5.0,ESE,12.7,-,0.09,Rain,Rain,120,2012-11-12 12:53:00
5:27 AM,44.6,44.6,100,30.18,4.0,South,8.1,-,0.10,Rain,Rain,170,2012-11-12 13:27:00
5:34 AM,44.6,44.6,100,30.18,5.0,SE,8.1,-,0.11,Rain,Rain,140,2012-11-12 13:34:00
5:53 AM,45.0,45.0,100,30.17,5.0,ESE,11.5,-,0.15,Rain,Rain,120,2012-11-12 13:53:00
6:41 AM,44.6,44.6,100,30.18,2.5,SE,12.7,-,0.04,Rain,Light Rain,130,2012-11-12 14:41:00
6:53 AM,44.1,44.1,100,30.18,2.5,SE,11.5,-,0.06,Rain,Light Rain,130,2012-11-12 14:53:00
7:39 AM,44.6,44.6,100,30.19,10.0,ESE,10.4,-,0.03,,Overcast,120,2012-11-12 15:39:00
7:53 AM,44.1,44.1,100,30.18,10.0,ESE,12.7,-,0.03,,Overcast,110,2012-11-12 15:53:00
8:53 AM,46.0,46.0,100,30.19,10.0,ESE,8.1,-,N/A,,Overcast,110,2012-11-12 16:53:00
9:53 AM,48.0,46.0,93,30.19,10.0,ESE,9.2,-,0.00,,Overcast,110,2012-11-12 17:53:00
10:53 AM,50.0,46.9,89,30.20,10.0,East,6.9,-,N/A,,Overcast,80,2012-11-12 18:53:00
11:53 AM,52.0,46.9,83,30.20,10.0,South,5.8,-,N/A,,Overcast,170,2012-11-12 19:53:00
12:53 PM,50.0,46.9,89,30.20,10.0,ESE,5.8,-,N/A,,Overcast,110,2012-11-12 20:53:00
1:53 PM,51.1,48.0,89,30.20,10.0,East,4.6,-,N/A,,Overcast,90,2012-11-12 21:53:00
2:37 PM,50.0,46.4,87,30.20,10.0,East,5.8,-,N/A,,Overcast,90,2012-11-12 22:37:00
2:53 PM,48.9,46.0,90,30.20,10.0,ESE,6.9,-,N/A,,Overcast,110,2012-11-12 22:53:00
3:53 PM,48.0,46.9,96,30.21,7.0,ESE,8.1,-,0.00,Rain,Light Rain,110,2012-11-12 23:53:00
4:19 PM,48.2,48.2,100,30.21,2.0,East,5.8,-,0.01,Rain,Light Rain,100,2012-11-13 00:19:00
4:35 PM,48.2,48.2,100,30.21,1.0,ESE,6.9,-,N/A,Rain,Light Rain,110,2012-11-13 00:35:00
4:53 PM,48.0,46.9,96,30.21,1.0,ESE,8.1,-,0.01,,Light Drizzle,110,2012-11-13 00:53:00
5:00 PM,48.2,46.4,93,30.21,2.5,ESE,6.9,-,0.00,,Light Drizzle,110,2012-11-13 01:00:00
5:53 PM,48.0,46.9,96,30.22,2.5,ESE,9.2,-,0.00,,Overcast,110,2012-11-13 01:53:00
6:10 PM,48.2,46.4,93,30.22,3.0,East,5.8,-,N/A,,Overcast,100,2012-11-13 02:10:00
6:53 PM,48.0,48.0,100,30.23,3.0,East,4.6,-,0.00,Rain,Light Rain,90,2012-11-13 02:53:00
7:48 PM,48.2,46.4,93,30.23,2.5,ESE,5.8,-,0.00,Rain,Light Rain,120,2012-11-13 03:48:00
7:53 PM,48.0,46.9,96,30.24,2.5,ESE,5.8,-,0.00,Rain,Light Rain,110,2012-11-13 03:53:00
8:40 PM,48.2,48.2,100,30.24,10.0,East,6.9,-,0.00,,Overcast,90,2012-11-13 04:40:00
8:53 PM,48.0,48.0,100,30.24,3.0,East,5.8,-,0.00,,Overcast,90,2012-11-13 04:53:00
9:53 PM,48.0,48.0,100,30.25,7.0,East,6.9,-,N/A,,Overcast,100,2012-11-13 05:53:00
10:50 PM,48.2,48.2,100,30.26,10.0,East,8.1,-,N/A,,Overcast,100,2012-11-13 06:50:00
10:53 PM,48.9,48.0,97,30.26,10.0,East,6.9,-,N/A,,Overcast,100,2012-11-13 06:53:00
11:53 PM,48.9,48.0,97,30.27,10.0,East,8.1,-,N/A,,Overcast,100,2012-11-13 07:53:00